Location: Cabeza de los Veneras
(40.2000°N, 5.2000°W)
Time: 04:05:56
(UTC+00:00)

ATLAS 5 CENTAUR R/B - Visible Passes

Search period start: 25 July 2024 00:00
Search period end: 04 August 2024 00:00
Orbit: 416 x 1166 km, 63.3° (Epoch: 24 July)

Date Brightness Start Highest point End Pass type
(mag) Time Alt. Az. Time Alt. Az. Time Alt. Az.
25 Jul 3.4 01:30:43 10° NNW 01:35:22 38° NE 01:41:00 10° ESE visible
25 Jul 2.7 03:14:18 10° NW 03:19:12 37° WSW 03:21:59 25° SSW visible
26 Jul 3.7 00:59:58 10° NNW 01:04:20 30° NE 01:08:20 15° ESE visible
26 Jul 2.4 02:43:10 10° NW 02:48:15 48° WSW 02:48:53 46° SW visible
27 Jul 4.0 00:29:16 10° N 00:33:14 24° NE 00:36:22 15° E visible
27 Jul 2.2 02:12:06 10° NW 02:16:59 62° WSW 02:16:59 62° WSW visible
27 Jul 4.2 23:58:35 10° N 00:02:04 19° NE 00:04:55 13° ENE visible
28 Jul 2.2 01:41:03 10° NW 01:45:33 70° NW 01:45:33 70° NW visible
28 Jul 4.4 23:28:01 10° N 23:30:49 15° NE 23:33:45 10° ENE visible
29 Jul 2.4 01:10:02 10° NNW 01:14:23 66° N 01:14:23 66° N visible
29 Jul 4.6 22:57:42 10° NNE 22:59:31 12° NE 23:01:27 10° ENE visible
30 Jul 2.6 00:39:00 10° NNW 00:43:23 56° NNE 00:43:23 56° NNE visible
30 Jul 4.3 02:23:26 10° WNW 02:24:01 12° WNW 02:24:01 12° WNW visible
31 Jul 2.9 00:08:00 10° NNW 00:12:29 45° NE 00:12:29 45° NE visible
31 Jul 4.1 01:51:54 10° WNW 01:53:09 16° WNW 01:53:09 16° WNW visible
31 Jul 3.2 23:37:01 10° NNW 23:41:36 35° NE 23:41:40 35° NE visible
01 Aug 3.9 01:20:29 10° NW 01:22:19 21° WNW 01:22:19 21° WNW visible
01 Aug 3.5 23:06:02 10° NNW 23:10:18 28° NE 23:10:54 27° ENE visible
02 Aug 3.6 00:49:08 10° NW 00:51:33 28° WNW 00:51:33 28° WNW visible
02 Aug 3.8 22:35:06 10° N 22:38:56 22° NE 22:40:09 21° ENE visible
03 Aug 3.2 00:17:49 10° NW 00:20:50 37° NW 00:20:50 37° NW visible
03 Aug 4.0 22:04:13 10° N 22:07:30 18° NE 22:09:27 15° ENE visible
03 Aug 2.8 23:46:32 10° NW 23:50:07 49° NW 23:50:07 49° NW visible
